Hanford, CA

7:49 PM PDT on August 18, 2017 (GMT -0700)
Hanford Municipal

Weather History for KHJO - November, 2012

Change the Weather History Date:

Thursday, November 29, 2012

  Actual Average Record
Temperature  
Mean Temperature 60 °F 47 °F  
Max Temperature 67 °F 59 °F 71 °F (2014)
Min Temperature 52 °F 36 °F 25 °F (2006)
Degree Days  
Heating Degree Days 5    
Month to date heating degree days 314  
Since 1 July heating degree days 397  
Cooling Degree Days 0    
Month to date cooling degree days 0  
Year to date cooling degree days 2018  
Growing Degree Days 10 (Base 50)    
Moisture  
Dew Point 55 °F    
Average Humidity 84    
Maximum Humidity 100    
Minimum Humidity 68    
Precipitation  
Precipitation 0.01 in 0.02 in 0.03 in (2001)
Month to date precipitation 0.28 0.98  
Year to date precipitation 5.00 8.45  
Since 1 July precipitation 0.42  
Snow  
Snow 0.00 in - - ()
Month to date snowfall 0.0  
Since 1 July snowfall 0.0  
Since 1 September snowfall 0.0  
Snow Depth 0.00 in    
Sea Level Pressure  
Sea Level Pressure 30.13 in    
Wind  
Wind Speed 5 mph (SE)    
Max Wind Speed 10 mph    
Max Gust Speed 14 mph    
Visibility 7 miles    
Events      
T = Trace of Precipitation, MM = Missing Value Source: NWS Daily Summary

Daily Weather History Graph

Daily Weather History Graph

Search for Another Location

Airport or City:

Trip Planner

Search our weather history database for the weather conditions in past years. The results will help you decide how hot, cold, wet, or windy it might be!

Date:

Astronomy

Nov. 29, 2012 Rise Set
Actual Time 6:50 AM PST 4:43 PM PST
Civil Twilight 6:21 AM PST 5:12 PM PST
Nautical Twilight 5:50 AM PST 5:43 PM PST
Astronomical Twilight 5:19 AM PST 6:14 PM PST
Moon 5:51 PM PST (11/29) 7:40 AM PST (11/29)
Length of Visible Light 10h 50m
Length of Day
9h 53m
Full, 99% of the Moon is Illuminated
Nov 29
Full
Dec 6
Last Quarter
Dec 13
New
Dec 19
First Quarter
Dec 28
Full

Hourly Weather History & Observations

Time (PST) Temp. Dew Point Humidity Pressure Visibility Wind Dir Wind Speed Gust Speed Precip Events Conditions
12:53 AM 55.9 °F 54.0 °F 93% 30.12 in 6.0 mi SW 4.6 mph - 0.00 in   Overcast
1:53 AM 57.0 °F 54.0 °F 89% 30.11 in 8.0 mi SE 3.5 mph - 0.01 in   Overcast
2:53 AM 55.9 °F 54.0 °F 93% 30.12 in 7.0 mi East 4.6 mph - N/A   Mostly Cloudy
3:53 AM 54.0 °F 53.1 °F 97% 30.12 in 8.0 mi South 3.5 mph - N/A   Scattered Clouds
4:53 AM 55.0 °F 54.0 °F 96% 30.13 in 5.0 mi East 3.5 mph - N/A   Mostly Cloudy
5:53 AM 54.0 °F 53.1 °F 97% 30.14 in 4.0 mi ESE 3.5 mph - N/A   Clear
6:53 AM 53.1 °F 51.1 °F 93% 30.15 in 5.0 mi ENE 3.5 mph - N/A   Clear
7:53 AM 55.0 °F 53.1 °F 93% 30.16 in 3.0 mi Variable 4.6 mph - N/A   Clear
7:57 AM 55.4 °F 53.6 °F 94% 30.15 in 2.5 mi SSE 3.5 mph - N/A   Partly Cloudy
8:34 AM 55.4 °F 53.6 °F 94% 30.16 in 3.0 mi SE 5.8 mph - N/A   Clear
8:53 AM 57.9 °F 55.9 °F 93% 30.17 in 4.0 mi South 8.1 mph - N/A   Clear
9:42 AM 57.2 °F 55.4 °F 94% 30.17 in 4.0 mi South 5.8 mph - N/A   Mostly Cloudy
9:53 AM 57.9 °F 55.0 °F 90% 30.18 in 4.0 mi South 6.9 mph - N/A   Mostly Cloudy
10:53 AM 60.1 °F 57.0 °F 90% 30.17 in 5.0 mi SSE 4.6 mph - N/A   Overcast
11:53 AM 62.1 °F 57.9 °F 86% 30.15 in 5.0 mi SSE 8.1 mph - N/A   Overcast
12:53 PM 64.0 °F 57.0 °F 78% 30.13 in 9.0 mi SSE 6.9 mph - N/A   Mostly Cloudy
1:53 PM 66.0 °F 55.9 °F 70% 30.11 in 9.0 mi ESE 5.8 mph - N/A   Clear
2:53 PM 66.0 °F 55.9 °F 70% 30.09 in 10.0 mi ESE 5.8 mph - N/A   Overcast
3:53 PM 64.9 °F 57.0 °F 75% 30.09 in 8.0 mi ESE 4.6 mph - N/A   Mostly Cloudy
4:53 PM 63.0 °F 55.9 °F 78% 30.09 in 10.0 mi SSE 3.5 mph - N/A   Overcast
5:53 PM 62.1 °F 57.0 °F 84% 30.11 in 10.0 mi SSW 6.9 mph - N/A   Overcast
6:53 PM 60.1 °F 55.9 °F 86% 30.12 in 10.0 mi South 3.5 mph - 0.00 in   Clear
7:53 PM 59.0 °F 55.9 °F 90% 30.10 in 9.0 mi ESE 3.5 mph - N/A   Partly Cloudy
8:53 PM 60.1 °F 55.0 °F 83% 30.10 in 10.0 mi ESE 4.6 mph - N/A   Clear
9:53 PM 60.1 °F 54.0 °F 80% 30.08 in 10.0 mi SE 8.1 mph - N/A   Clear
10:53 PM 60.1 °F 55.0 °F 83% 30.08 in 9.0 mi East 5.8 mph - N/A   Mostly Cloudy
11:53 PM 60.1 °F 55.0 °F 83% 30.09 in 8.0 mi Variable 5.8 mph - N/A   Scattered Clouds